Weather in Sosnovka

Russia / Tambov Oblast     52°15′19″N   41°01′03″E
temp.,
°C
wind,
m/s
gust,
m/s
humid.,
%
clouds,
%
prec.,
mm/h
press.,
hPa
HPBL,
m
17 august, wed
wed1700:00+23e61437100 0.0 1017438
03:00+22e61337100 0.0 1017417
06:00+22e61235100 0.0 1015358
09:00+23e61336100 0.0 1016356
12:00+25e81444100 0.0 1015844
15:00+27e91236100 0.0 10151020
18:00+25e51140100 0.0 1015440
21:00+23ene8164199 0.0 1014598
18 august, thu
thu1800:00+22ene71743100 0.0 1014462
03:00+22ene8194586 0.0 1012588
06:00+24e81835100 0.0 1012678
09:00+25e9173659 0.1 10121032
12:00+29e101331100 0.0 10121459
15:00+28e81234100 0.0 10121388
18:00+23ese71457100 0.0 1014965
21:00+21ene71362100 0.0 1014466
19 august, fri
fri1900:00+21ene101660100 0.3 1014754
03:00+20ene91769100 0.3 1015932
06:00+19e91877100 0.3 10161127
09:00+20e71672100 3.1 10171261
12:00+21ese71664100 0.2 10191258
15:00+20ese101568100 1.4 10201273
18:00+17e101888100 4.3 1020954
21:00+18e102076100 6.3 10211024
20 august, sat
sat2000:00+19e91970100 0.0 1021883
03:00+21ese91746100 0.0 1022874
06:00+19e81539100 0.0 1023576
09:00+21ese8143399 0.0 1024673
12:00+25ese8112996 0.0 10241159
15:00+26ese7928100 0.0 10231262
18:00+24se51032100 0.0 1023320
21:00+22ese61423100 0.0 1023466
21 august, sun
sun2100:00+19ese51226100 0.0 1024314
03:00+18ese51326100 0.0 1024343
06:00+17e51232100 0.0 1024275
09:00+21ese61231100 0.0 1024488
12:00+26ese7920100 0.0 10231526
15:00+28ese6817100 0.0 10222040
18:00+24e492892 0.0 1021185
21:00+21e41129100 0.0 1021177